Regional Weather Roundup
Issued by NWS Memphis, TN

Home | Current Version | Previous Version | Text Only | Print | Product List | Glossary On
Versions: 1 2 3 4 5 6 7 8 9 10 11 12 13 14 15 16 17 18 19 20 21 22 23 24 25 26 27 28 29 30 31 32 33 34 35 36 37 38 39 40 41 42 43 44 45 46 47 48 49 50
000
ASUS44 KMEG 251310
RWRMEG
MEMPHIS CWA HOURLY WEATHER ROUNDUP
NATIONAL WEATHER SERVICE MEMPHIS TN
700 AM CST THU DEC 25 2014

...WEST TENNESSEE...

CITY           SKY/WX    TMP DP  RH WIND       PRES   REMARKS
MEMPHIS INTL   CLEAR     34  31  88 S9        30.13R WCI  27
NWS MEMPHIS      N/A     34 N/A N/A MISG        N/A
JACKSON        CLOUDY    38  32  79 SW5       30.12R WCI  34
LEXINGTON      CLOUDY    36  36 100 CALM      30.12R
SAVANNAH       CLOUDY    39  37  93 CALM      30.14R
DYERSBURG      CLEAR     37  23  56 CALM      30.13R
UNION CITY     PTCLDY    30  30 100 S6        30.10R WCI  24
PARIS          CLOUDY    36  30  80 SW3       30.11R
HUNTINGDON     CLOUDY    36  33  88 S3        30.12R


...EASTERN ARKANSAS...

CITY           SKY/WX    TMP DP  RH WIND       PRES   REMARKS
JONESBORO      CLEAR     34  32  92 CALM      30.10R
WEST MEMPHIS   CLEAR     32  32 100 S5        30.12R WCI  27
BATESVILLE     CLEAR     34  28  80 S3        30.08R
NEWPORT        CLEAR     32  30  92 S9        30.11R WCI  24
WALNUT RIDGE   CLEAR     34  28  80 S9        30.07R WCI  26
BLYTHEVILLE    CLEAR     35  33  92 S7        30.11R WCI  29
SEARCY         CLEAR     26  25  96 S7        30.14R WCI  18
STUTTGART      CLEAR     34  30  86 S7        30.14R WCI  28
PINE BLUFF     CLEAR     31  28  89 S6        30.14R WCI  25
MONTICELLO     CLEAR     36  31  82 S6        30.16R WCI  31


...NORTH MISSISSIPPI...

CITY           SKY/WX    TMP DP  RH WIND       PRES   REMARKS
TUPELO         CLEAR     34  32  92 CALM      30.18R
OXFORD         CLEAR     28  28 100 MISG      30.19R
OLIVE BRANCH   CLEAR     32  32 100 S7        30.14R WCI  26
TUNICA         CLEAR     32  32 100 S6        30.17R WCI  26
CLARKSDALE     CLEAR     32  32 100 S3        30.18R
CORINTH        PTCLDY    39  36  87 SW3       30.15R
GRENADA        CLEAR     30  30 100 CALM      30.20R
GREENWOOD      CLEAR     31  29  92 S3        30.20R
COLUMBUS       CLEAR     31  31  99 CALM      30.18R
STARKVILLE     FAIR      30  30 100 CALM      30.18R FOG
GOLDEN TRIANGL CLEAR     34  30  86 CALM      30.16R


...SOUTHEAST MISSOURI...

CITY           SKY/WX    TMP DP  RH WIND       PRES   REMARKS
WEST PLAINS    CLEAR     29  25  85 S3        29.99R
POPLAR BLUFF   CLEAR     33  28  81 S6        30.06R WCI  28
CAPE GIRARDEAU CLEAR     34  31  88 S6        30.07R WCI  29


...NORTHWEST ALABAMA...

CITY           SKY/WX    TMP DP  RH WIND       PRES   REMARKS
MUSCLE SHOALS  CLOUDY    41  36  82 CALM      30.16R


...MIDDLE TENNESSEE...

CITY           SKY/WX    TMP DP  RH WIND       PRES   REMARKS
NASHVILLE      CLOUDY    40  34  79 SW3       30.14R
CLARKSVILLE    CLOUDY    39  34  82 SW6       30.12R WCI  35
COLUMBIA       CLOUDY   N/A N/A N/A SW5       30.12R


...WESTERN KENTUCKY...

CITY           SKY/WX    TMP DP  RH WIND       PRES   REMARKS
PADUCAH        PTCLDY    35  30  82 S5        30.08R WCI  31
FORT CAMPBELL  CLOUDY    39  34  82 SW7       30.11R WCI  34


...CENTRAL ARKANSAS...

CITY           SKY/WX    TMP DP  RH WIND       PRES   REMARKS
LITTLE ROCK    CLEAR     31  27  85 SE6       30.12R WCI  25


SKY/WX REPORTED AS FAIR MEANS FEW OR NO CLOUDS BELOW
12 THOUSAND FEET.



USA.gov is the U.S. government's official web portal to all federal, state and local government web resources and services.